This demonstration page uses our WeatherBlox Daily Observations layout. Learn more.

Left ArrowRight Arrow

34.16533, -84.80231

Hourly Observations for April 7, 2016

Temp ( °F °C ) Dew Point ( °F °C ) Humidity (%) Winds ( mph kmh ) Pressure ( in mb ) Visibility ( mi km ) Precip ( " mm )
12:02 am 00:02 Cloudy with Rain 53 11.7 52 11.1 96 96 Calm 29.88 1012 3 5 0.06 1.52
12:09 am 00:09 Cloudy with Nearby Thunderstorms 53 11.7 53 11.7 100 100 Calm 29.88 1012 6 10 0.06 1.52
12:24 am 00:24 Cloudy 53 11.7 53 11.7 100 100 S 5 7 29.91 1013 10 16 0.06 1.52
12:50 am 00:50 Cloudy 54 12 54 12 100 100 Calm 29.91 1013 10 16 0.06 1.52
12:53 am 00:53 Cloudy 53 11.7 53 11.7 100 100 VRB 3 6 29.84 1011 10 16 0.06 1.52
1:08 am 01:08 Cloudy 54 12.2 53 11.7 97 97 VRB 3 6 29.88 1012 10 16 0.00 0.00
1:32 am 01:32 Cloudy 53 11.7 52 11.1 96 96 Calm 29.91 1013 10 16 0.00 0.00
1:40 am 01:40 Cloudy 53 11.7 52 11.1 96 96 Calm 29.91 1013 10 16 0.00 0.00
1:53 am 01:53 Cloudy 53 11.7 52 11.1 96 96 Calm 29.85 1011 10 16 0.00 0.00
2:07 am 02:07 Mostly Cloudy 53 11.7 52 11.1 96 96 Calm 29.91 1013 10 16 0.00 0.00
2:27 am 02:27 Mostly Clear 52 11.1 51 10.6 97 97 VRB 3 6 29.91 1013 10 16 0.00 0.00
2:53 am 02:53 Clear 52 11.1 50 10 93 93 VRB 3 6 29.86 1011 10 16 0.00 0.00
3:53 am 03:53 Clear with Mist and Fog 49 9.4 48 8.9 97 97 Calm 29.85 1011 4 6 0.00 0.00
4:01 am 04:01 Mostly Clear with Mist and Fog 48 8.9 48 8.9 100 100 Calm 29.88 1012 2 3 0.00 0.00
4:09 am 04:09 Mostly Cloudy with Mist and Fog 48 8.9 48 8.9 100 100 Calm 29.88 1012 1 1 0.00 0.00
4:23 am 04:23 Mostly Clear with Mist and Fog 48 8.9 48 8.9 100 100 Calm 29.88 1012 1 2 0.00 0.00
4:30 am 04:30 Mostly Cloudy with Mist and Fog 48 8.9 47 8.3 96 96 Calm 29.88 1012 1 1 0.00 0.00
4:43 am 04:43 Mostly Clear with Mist and Fog 47 8.3 47 8.3 100 100 Calm 29.88 1012 1 2 0.00 0.00
4:50 am 04:50 Mostly Cloudy with Mist and Fog 46 8 46 8 100 100 Calm 29.88 1012 1 1 0.00 0.00
5:21 am 05:21 Partly Cloudy with Mist and Fog 47 8.3 47 8.3 100 100 Calm 29.88 1012 2 2 0.00 0.00
5:28 am 05:28 Partly Cloudy with Mist and Fog 47 8.3 46 7.8 97 97 Calm 29.88 1012 2 3 0.00 0.00
5:53 am 05:53 Mostly Clear with Mist and Fog 47 8.3 46 7.8 97 97 Calm 29.83 1010 6 10 0.00 0.00
6:53 am 06:53 Clear 46 7.8 45 7.2 96 96 Calm 29.84 1011 9 14 0.00 0.00
7:53 am 07:53 Sunny with Mist and Fog 46 7.8 46 7.8 100 100 Calm 29.86 1011 6 10 0.00 0.00
8:53 am 08:53 Sunny 51 10.6 48 8.9 89 89 VRB 5 7 29.85 1011 10 16 0.00 0.00
9:53 am 09:53 Sunny 56 13.3 49 9.4 77 77 undefined N/A 29.86 1011 10 16 0.00 0.00
10:53 am 10:53 Sunny 58 14.4 48 8.9 70 70 VRB 5 7 29.86 1011 10 16 0.00 0.00
11:53 am 11:53 Sunny 63 17.2 45 7.2 52 52 undefined N/A 29.84 1010 10 16 0.00 0.00
12:53 pm 12:53 Sunny 65 18.3 43 6.1 45 45 VRB 5 7 29.83 1010 10 16 0.00 0.00
1:53 pm 13:53 Partly Cloudy 66 18.9 43 6.1 43 43 VRB 5 7 29.81 1010 10 16 0.00 0.00
2:53 pm 14:53 Partly Cloudy 68 20 40 4.4 36 36 VRB 6 9 29.79 1009 10 16 0.00 0.00
3:53 pm 15:53 Sunny 69 20.6 40 4.4 35 35 VRB 3 6 29.77 1008 10 16 0.00 0.00
4:53 pm 16:53 Mostly Cloudy 69 20.6 41 5 36 36 VRB 6 9 29.77 1008 10 16 0.00 0.00
5:53 pm 17:53 Partly Cloudy 70 21.1 40 4.4 34 34 VRB 3 6 29.75 1008 10 16 0.00 0.00
6:53 pm 18:53 Mostly Cloudy 67 19.4 41 5 39 39 Calm 29.75 1008 10 16 0.00 0.00
7:53 pm 19:53 Cloudy 61 16.1 45 7.2 56 56 Calm 29.76 1008 10 16 0.00 0.00
8:53 pm 20:53 Mostly Cloudy 59 15 47 8.3 64 64 Calm 29.78 1009 10 16 0.00 0.00
9:53 pm 21:53 Mostly Cloudy 55 12.8 49 9.4 80 80 Calm 29.81 1009 10 16 0.00 0.03
10:53 pm 22:53 Mostly Cloudy 54 12.2 45 7.2 72 72 Calm 29.83 1010 10 16 0.00 0.00
11:53 pm 23:53 Cloudy 54 12.2 46 7.8 75 75 Calm 29.85 1011 10 16 0.00 0.00

Powered by AerisWeather